星链-4788 (STARLINK-4788 )

导读 | 星芒AI

STARLINK-4788 是 SpaceX Starlink 项目中的一颗低轨通信卫星,属于该系列的第 4788 颗发射卫星。该卫星旨在为全球用户提供高速互联网服务,支持偏远地区的网络接入。它运行在约 550 公里的轨道高度,采用先进的通信技术,具备高带宽和低延迟特性。STARLINK-4788 与其它 Starlink 卫星共同构建了一个庞大的卫星互联网网络,提升全球网络覆盖能力。其发射和运行有助于推动 SpaceX 在全球宽带市场的竞争力。

基本信息
目录编号:
53863
目录名称:
STARLINK-4788
国际标识:
2022-114AX
轨道中心:
EARTH
卫星名称:
星链-4788
卫星全名:
星链-4788 (STARLINK-4788 )
卫星状态:
在轨 (已飞行1143 天)
发射日期:
2022-09-19 UTC
国别 :
美国 (US)
星等 :
--
轨道信息
数据来源 国际轨道数据
星历时间: 2025-11-05T02:37:49+0800
5小时前
查看轨道信息
半长轴: 6917.865km
偏心率: 0.0001429
轨道倾角: 53.213°
近地点辐角 89.396°
升交点赤经 124.917°
平近点角 270.719°
近地点: 538.741km
远地点: 540.719km
周期: 95.437分钟
每日圈数: 15.088453
详细信息
固有亮度:
5
最大亮度:
2.5
卫星平台:
Starlink v1.5
覆盖范围:
全球
运营商:
太空探索技术公司
运营商所在国:
美国
制造商(研发单位):
太空探索技术公司
制造商所在国:
美国
使用方式:
暂无
卫星简介
星链(Starlink)计划是由太空探索技术公司(SpaceX)提出的一个巨型低轨卫星互联网星座项目,计划在2019年至2024年间在太空搭建由约1.2万颗卫星组成的“星链”网络,其中1584颗将部署在地球上空550千米处的近地轨道,并从2020年开始工作。该卫星仍在工作。
2D轨道图
3D轨道图
轨道高度分析图
轨道倾角分析图
轨道综合分析图
查看轨道综合分析图